Serval — J8B4154 — position and weather

sailwx.info

Track history (hours):
 
Tides and Currents Weather Stations Pressure Air Temp Water Temp Dewpoint Dewpoint Depression Visibility Wind Speed Wind Dir Waves Ship Positions

Serval

Last reported at 2014-Jul-29 22:33 UTC. Time now 2014-Jul-30 21:28 UTC.
Position N 53°57' E 006°28'.

Length 30 m; draft 4.9 m.

Type: . MMSI: 377103000.

Date/timePositionNaut miles runAvg speedWind from/ knotsBaromVisibWave heightAir tempDewpointWater temp
2014-Jul-29 22:33N 53°57' E 006°28'2 0.5
2014-Jul-29 18:25N 53°58' E 006°25'1 0.0
2014-Jul-28 19:32N 53°58' E 006°27'  
2014-Jul-25 19:05N 53°59' E 006°24'1 0.6
2014-Jul-25 17:05N 53°59' E 006°21'1 0.4
2014-Jul-25 14:24N 53°58' E 006°23'1 0.9
2014-Jul-25 13:31N 53°58' E 006°24'2 1.4
2014-Jul-25 12:16N 53°58' E 006°21'4 0.2
2014-Jul-24 20:32N 53°59' E 006°27'3 2.7
2014-Jul-24 19:33N 53°59' E 006°23'0 0.4
2014-Jul-24 18:32N 53°59' E 006°23'0 0.4
2014-Jul-24 17:32N 53°59' E 006°24'1 0.7
2014-Jul-24 16:29N 53°58' E 006°25'1 0.3
2014-Jul-24 12:10N 53°57' E 006°24'1 2.0
2014-Jul-24 11:32N 53°57' E 006°26'2 2.0
2014-Jul-24 10:20N 53°59' E 006°23'1 0.6
2014-Jul-24 09:15N 53°59' E 006°24'1 0.5
2014-Jul-24 07:17N 53°58' E 006°26'1 1.1
2014-Jul-24 06:31N 53°59' E 006°27'2 0.5
2014-Jul-24 02:19N 53°57' E 006°24'1 0.4
2014-Jul-24 00:28N 53°57' E 006°23'1 1.5
2014-Jul-23 23:31N 53°58' E 006°25'1 0.3
2014-Jul-23 18:31N 53°59' E 006°27'3 1.3
2014-Jul-23 16:24N 53°58' E 006°22'1 0.2
2014-Jul-23 13:32N 53°58' E 006°21'1 0.8
2014-Jul-23 12:33N 53°58' E 006°23'2 2.2
2014-Jul-23 11:32N 53°57' E 006°26'0 0.4
2014-Jul-23 10:32N 53°57' E 006°26'1 0.8
2014-Jul-23 09:31N 53°57' E 006°27'1 0.9
2014-Jul-23 08:33N 53°58' E 006°27'1 0.9
2014-Jul-23 07:33N 53°57' E 006°26'1 1.1
2014-Jul-23 06:29N 53°59' E 006°26'0 0.2
2014-Jul-23 05:21N 53°58' E 006°26'0 0.3
2014-Jul-23 04:27N 53°58' E 006°26'1 0.3
2014-Jul-23 01:07N 53°58' E 006°24'1 0.3
2014-Jul-22 21:33N 53°58' E 006°22'1 1.4
2014-Jul-22 20:33N 53°58' E 006°24'1 1.1
2014-Jul-22 19:33N 53°58' E 006°26'1 0.8
2014-Jul-22 18:33N 53°58' E 006°27'0 0.4
2014-Jul-22 17:28N 53°58' E 006°27'2 0.8
2014-Jul-22 15:16N 53°58' E 006°25'2 2.2
2014-Jul-22 14:33N 53°58' E 006°22'1 0.8
2014-Jul-22 13:33N 53°57' E 006°22'1 0.6
2014-Jul-22 12:27N 53°57' E 006°23'2 1.3
2014-Jul-22 11:15N 53°58' E 006°26'2 0.0
2014-Jul-20 20:32N 53°59' E 006°23'1 0.6
2014-Jul-20 19:23N 53°59' E 006°22'1 0.8
2014-Jul-20 18:32N 53°59' E 006°23'1 0.1
2014-Jul-20 01:17N 53°58' E 006°25'1 1.9
2014-Jul-20 00:32N 53°58' E 006°23'1 0.5
2014-Jul-19 23:23N 53°58' E 006°23'  
Track history (hours):
 
Tides and Currents Weather Stations Pressure Air Temp Water Temp Dewpoint Dewpoint Depression Visibility Wind Speed Wind Dir Waves Ship Positions

Serval

Last reported at 2014-Jul-29 22:33 UTC. Time now 2014-Jul-30 21:28 UTC.
Position N 53°57' E 006°28'.

Length 30 m; draft 4.9 m.

Type: . MMSI: 377103000.

Date/timePositionNaut miles runAvg speedWind from/ knotsBaromVisibWave heightAir tempDewpointWater temp
2014-Jul-29 22:33N 53°57' E 006°28'2 0.5
2014-Jul-29 18:25N 53°58' E 006°25'1 0.0
2014-Jul-28 19:32N 53°58' E 006°27'  
2014-Jul-25 19:05N 53°59' E 006°24'1 0.6
2014-Jul-25 17:05N 53°59' E 006°21'1 0.4
2014-Jul-25 14:24N 53°58' E 006°23'1 0.9
2014-Jul-25 13:31N 53°58' E 006°24'2 1.4
2014-Jul-25 12:16N 53°58' E 006°21'4 0.2
2014-Jul-24 20:32N 53°59' E 006°27'3 2.7
2014-Jul-24 19:33N 53°59' E 006°23'0 0.4
2014-Jul-24 18:32N 53°59' E 006°23'0 0.4
2014-Jul-24 17:32N 53°59' E 006°24'1 0.7
2014-Jul-24 16:29N 53°58' E 006°25'1 0.3
2014-Jul-24 12:10N 53°57' E 006°24'1 2.0
2014-Jul-24 11:32N 53°57' E 006°26'2 2.0
2014-Jul-24 10:20N 53°59' E 006°23'1 0.6
2014-Jul-24 09:15N 53°59' E 006°24'1 0.5
2014-Jul-24 07:17N 53°58' E 006°26'1 1.1
2014-Jul-24 06:31N 53°59' E 006°27'2 0.5
2014-Jul-24 02:19N 53°57' E 006°24'1 0.4
2014-Jul-24 00:28N 53°57' E 006°23'1 1.5
2014-Jul-23 23:31N 53°58' E 006°25'1 0.3
2014-Jul-23 18:31N 53°59' E 006°27'3 1.3
2014-Jul-23 16:24N 53°58' E 006°22'1 0.2
2014-Jul-23 13:32N 53°58' E 006°21'1 0.8
2014-Jul-23 12:33N 53°58' E 006°23'2 2.2
2014-Jul-23 11:32N 53°57' E 006°26'0 0.4
2014-Jul-23 10:32N 53°57' E 006°26'1 0.8
2014-Jul-23 09:31N 53°57' E 006°27'1 0.9
2014-Jul-23 08:33N 53°58' E 006°27'1 0.9
2014-Jul-23 07:33N 53°57' E 006°26'1 1.1
2014-Jul-23 06:29N 53°59' E 006°26'0 0.2
2014-Jul-23 05:21N 53°58' E 006°26'0 0.3
2014-Jul-23 04:27N 53°58' E 006°26'1 0.3
2014-Jul-23 01:07N 53°58' E 006°24'1 0.3
2014-Jul-22 21:33N 53°58' E 006°22'1 1.4
2014-Jul-22 20:33N 53°58' E 006°24'1 1.1
2014-Jul-22 19:33N 53°58' E 006°26'1 0.8
2014-Jul-22 18:33N 53°58' E 006°27'0 0.4
2014-Jul-22 17:28N 53°58' E 006°27'2 0.8
2014-Jul-22 15:16N 53°58' E 006°25'2 2.2
2014-Jul-22 14:33N 53°58' E 006°22'1 0.8
2014-Jul-22 13:33N 53°57' E 006°22'1 0.6
2014-Jul-22 12:27N 53°57' E 006°23'2 1.3
2014-Jul-22 11:15N 53°58' E 006°26'2 0.0
2014-Jul-20 20:32N 53°59' E 006°23'1 0.6
2014-Jul-20 19:23N 53°59' E 006°22'1 0.8
2014-Jul-20 18:32N 53°59' E 006°23'1 0.1
2014-Jul-20 01:17N 53°58' E 006°25'1 1.9
2014-Jul-20 00:32N 53°58' E 006°23'1 0.5
2014-Jul-19 23:23N 53°58' E 006°23'  

Dump ship's entire track history